Location: Newark
(20.0000°S, 47.0000°E)
Time: 13:52:42
(UTC+00:00)

ISS - Visible Passes

Search period start: 19 October 2019 00:00
Search period end: 29 October 2019 00:00
Orbit: 411 x 421 km, 51.6° (Epoch: 19 October)

Date Brightness Start Highest point End Pass type
(mag) Time Alt. Az. Time Alt. Az. Time Alt. Az.
19 Oct -2.6 00:42:30 33° S 00:43:27 42° SE 00:46:40 10° ENE visible
19 Oct -1.4 15:38:01 10° WNW 15:40:53 26° SW 15:43:46 10° SSE visible
20 Oct -2.1 01:31:25 17° NW 01:31:26 17° NW 01:33:43 10° NNW visible
